DMSP 5D-2 F13 DEB

Satellite information

Favourite Embed

Satellite Type and Status

DEBRISIN ORBIT

Key statistics

Satellite DMSP 5D-2 F13 DEB at a glance.

Uptime

11006

Days in orbit

Revolutions

≈ 14.3

Per day

Orbit

SSO

Sun Synchronous Orbit

Inclination

98.7

Latest

Satellite identification and parameters

Extended collection of information and parameters for DMSP 5D-2 F13 DEB.

Object identification

Identified? True

Debris? True

Object name: DMSP 5D-2 F13 DEB

International designator: 1995-015FZ

Object number (NORAD): 42259

Object ID (CCSDS): 42259

Country: UNITED STATES OF AMERICA (US)

Current information (Y/N): Y

RCS size: SMALL

Orbital parameters

Period: 100.433 minutes

Inclination: 98.678 deg

SMA: 7157.225 km

Apoapsis: 786.917 km

Periapsis: 771.263 km

RAAN: 152.2944 deg

Eccentricy: 0.0010936

Argument of periapsis: 59.7138 deg

Mean anomaly: 300.5127 deg

Mean motion: 14.33790725 rev/day

Mean motion (dot): 0.00005892 rev/day2

B* drag term: 0.0021323 1/REarth

Two-line elements (TLE)

Creation date: May 5, 2025, 2:56 p.m.

Reference frame: TEME

Reference center: EARTH

Epoch: May 3, 2025, 1:02 p.m. UTC

TLE line 0: 0 DMSP 5D-2 F13 DEB

TLE line 1: 1 42259U 95015FZ 25123.54341791 .00005892 00000-0 21323-2 0 9996

TLE line 2: 2 42259 98.6780 152.2944 0010936 59.7138 300.5127 14.33790725502377

Live tracking on map

Real-time ground track for satellite DMSP 5D-2 F13 DEB.

In-orbit conjunctions

A list of the most updated potential collisions computed for object DMSP 5D-2 F13 DEB.

Target Orbit TCA Probability of collision Miss distance Type
COSMOS 968 LEO 2025-04-06 13:17:15 0.000531544 231.0 (m) PAYLOAD
SL-8 R/B LEO 2025-03-01 19:14:24 0.0001280695 130.0 (m) ROCKET BODY
COSMOS 2208 LEO 2024-09-11 04:59:05 0.0002170309 658.0 (m) PAYLOAD

Associated space launch

Military meteorological satellite

DMSP 5D-2 F13 DEB was lifted into orbit during the mission ‘Atlas E | DMSP-5D2 F13’, on board a Atlas E space rocket.

The launch took place on March 24, 1995, 2:05 p.m. from Space Launch Complex 3W.

For more information about the launch, click the button.

Launch to space Atlas E | DMSP-5D2 F13
Atlas E | DMSP-5D2 F13

Agency: N/A

Status: Launch Successful

Launch date: March 24, 1995, 2:05 p.m. UTC

Rocket: Atlas E

Launch pad: Space Launch Complex 3W

Location: Vandenberg SFB, CA, USA

...

Latest news about this satellite

There are no fresh news available about this satellite. Check back as we update our databases every day.


Newsletter sign-up

Weekly statistics, charts and insights to help you stay on top of the space industry.